Home > Weather > Niagara Falls > Past weeks

Flag for Canada Past Weather in Niagara Falls, Ontario, Canada — Yesterday and Last 2 Weeks

Now
67 °F

Clear.


Feels Like: 67 °F
Forecast: 67 / 81 °F
Wind: 6 mph from Southwest

Location: Niagara Falls International Airport

Current Time: May 27, 2016 at 6:26:57 AM

Latest Report: May 27, 2016 at 5:53 AM


Visibility: 8 mi

Pressure: 29.95 "Hg

Humidity: 81%

Dew Point: 61 °F

Location of Niagara FallsLocation

Past Weather in Niagara Falls — Graph

°F

Niagara Falls Temperature Yesterday

Maximum temperature yesterday: 85 °F (at 3:53 PM)
Minimum temperature yesterday: 62 °F (at 5:53 AM)
Average temperature yesterday: 74 °F

High & Low Weather Summary for the Past Weeks

 TemperatureHumidityPressure
High85 °F (May 26, 3:53 PM)90% (May 13, 3:53 AM)30.30 "Hg (May 13, 3:53 AM)
Low37 °F (May 16, 2:53 AM)20% (May 23, 6:53 PM)29.53 "Hg (May 14, 11:53 AM)
Average60 °F56%30.01 "Hg
* Reported May 12 4:53 AM — May 27 4:53 AM, Niagara Falls, Weather by CustomWeather, © 2016

Note: Actual official high and low records may vary slightly from our data, if they occured in-between our weather recording intervals... More about our weather records

Advertising

Niagara Falls Weather History for the Previous 24 Hours

Scroll right to see more
 ConditionsComfort  
Time TempWeatherWind HumidityBarometerVisibility
4:53 AM
Fri, May 27
68 °FClear.7 mph82%29.93 "Hg10 mi
3:53 AM70 °FClear.8 mph76%29.94 "Hg10 mi
1:53 AM71 °FClear.9 mph78%29.95 "Hg9 mi
12:53 AM70 °FClear.3 mph76%29.96 "Hg10 mi
11:53 PM
Thu, May 26
71 °FClear.6 mph71%29.94 "Hg10 mi
10:53 PM71 °FPassing clouds.6 mph71%29.94 "Hg10 mi
9:53 PM72 °FPassing clouds.7 mph68%29.94 "Hg10 mi
8:53 PM75 °FPartly sunny.8 mph62%29.93 "Hg10 mi
7:53 PM78 °FPartly sunny.8 mph58%29.92 "Hg10 mi
6:53 PM81 °FPartly sunny.10 mph53%29.92 "Hg10 mi
5:53 PM84 °FPartly sunny.12 mph48%29.92 "Hg10 mi
4:53 PM85 °FBroken clouds.10 mph46%29.94 "Hg10 mi
3:53 PM85 °FScattered clouds.14 mph45%29.96 "Hg10 mi
2:53 PM84 °FBroken clouds.16 mph49%29.97 "Hg10 mi
1:53 PM83 °FBroken clouds.14 mph51%29.97 "Hg10 mi
12:53 PM82 °FPartly sunny.14 mph51%29.98 "Hg10 mi
11:53 AM80 °FMore clouds than sun.12 mph51%29.98 "Hg10 mi
10:53 AM78 °FMostly cloudy.12 mph50%30.00 "Hg10 mi
9:53 AM76 °FBroken clouds.8 mph54%30.01 "Hg10 mi
8:53 AM73 °FPartly sunny.7 mph57%30.02 "Hg10 mi
7:53 AM68 °FBroken clouds.No wind65%30.03 "Hg10 mi
7:00 AM64 °FPartly sunny.No wind70%30.05 "Hg8 mi
Weather by CustomWeather, © 2016

See weather overviewHow to use our weather pages